Ashtabula, OH

4:22 PM EST on December 15, 2019 (GMT -0500)
Ashtabula County

Weather History for KHZY - September, 2019

Change the Weather History Date:

Saturday, September 7, 2019

  Actual Average (KGKJ) Record (KGKJ)
Temperature  
Mean Temperature 62 °F -  
Max Temperature 73 °F 76 °F 92 °F (1954)
Min Temperature 53 °F 52 °F 34 °F (1962)
Degree Days  
Heating Degree Days 3    
Growing Degree Days 12 (Base 50)    
Moisture  
Dew Point 58 °F    
Average Humidity 89    
Maximum Humidity 100    
Minimum Humidity 61    
Precipitation  
Precipitation 0.02 in - - ()
Sea Level Pressure  
Sea Level Pressure 29.96 in    
Wind  
Wind Speed 2 mph (WNW)    
Max Wind Speed 14 mph    
Max Gust Speed -    
Visibility 9 miles    
Events      
Averages and records for this station are not official NWS values.
T = Trace of Precipitation, MM = Missing Value Source: NWS Daily Summary

Daily Weather History Graph

Daily Weather History Graph

Search for Another Location

Airport or City:

Astronomy

Sep. 07, 2019 Rise Set
Actual Time 6:54 AM EDT 7:46 PM EDT
Civil Twilight 6:26 AM EDT 8:14 PM EDT
Nautical Twilight 5:52 AM EDT 8:48 PM EDT
Astronomical Twilight 5:17 AM EDT 9:22 PM EDT
Moon 4:05 PM EDT (9/7) 12:41 AM EDT (9/7)
Length of Visible Light 13h 48m
Length of Day
12h 51m
Waxing Gibbous, 65% of the Moon is Illuminated
Sep 7
Waxing Gibbous
Sep 14
Full
Sep 21
Last Quarter
Sep 28
New
Oct 5
First Quarter

Hourly Weather History & Observations

Time (EDT) Temp. Dew Point Humidity Pressure Visibility Wind Dir Wind Speed Gust Speed Precip Events Conditions
12:02 AM 55.0 °F 55.0 °F 100% 29.91 in 7.0 mi Calm Calm - N/A   Clear
12:36 AM 55.0 °F 55.0 °F 100% 29.91 in 7.0 mi Calm Calm - N/A   Partly Cloudy
12:53 AM 54.0 °F 54.0 °F 100% 29.90 in 8.0 mi Calm Calm - N/A   Partly Cloudy
1:13 AM 53.1 °F 53.1 °F 100% 29.92 in 2.5 mi Calm Calm - N/A   Partly Cloudy
1:20 AM 53.1 °F 53.1 °F 100% 29.92 in 9.0 mi Calm Calm - N/A   Clear
1:53 AM 54.0 °F 54.0 °F 100% 29.92 in 8.0 mi Calm Calm - N/A   Mostly Cloudy
2:53 AM 55.9 °F 55.0 °F 97% 29.91 in 10.0 mi Calm Calm - N/A   Overcast
3:53 AM 55.9 °F 55.9 °F 100% 29.91 in 9.0 mi Calm Calm - N/A   Mostly Cloudy
4:53 AM 57.0 °F 57.0 °F 100% 29.91 in 10.0 mi Calm Calm - N/A   Overcast
5:53 AM 57.9 °F 57.9 °F 100% 29.92 in 8.0 mi Calm Calm - 0.00 in   Overcast
6:53 AM 57.9 °F 57.9 °F 100% 29.93 in 10.0 mi Calm Calm - N/A   Overcast
7:53 AM 59.0 °F 59.0 °F 100% 29.94 in 10.0 mi Calm Calm - N/A   Overcast
8:05 AM 59.0 °F 57.9 °F 96% 29.95 in 10.0 mi Calm Calm - N/A   Overcast
8:53 AM 61.0 °F 61.0 °F 100% 29.96 in 10.0 mi SW 3.5 mph - N/A   Overcast
9:53 AM 63.0 °F 61.0 °F 93% 29.96 in 10.0 mi SW 4.6 mph - N/A   Overcast
10:53 AM 63.0 °F 62.1 °F 97% 29.97 in 10.0 mi Calm Calm - 0.02 in   Overcast
11:18 AM 66.0 °F 63.0 °F 90% 29.97 in 10.0 mi Calm Calm - N/A   Overcast
11:36 AM 64.9 °F 61.0 °F 87% 29.97 in 10.0 mi North 3.5 mph - N/A   Overcast
11:53 AM 64.9 °F 62.1 °F 90% 29.97 in 10.0 mi WNW 4.6 mph - N/A   Overcast
12:23 PM 66.0 °F 62.1 °F 87% 29.98 in 10.0 mi NNW 5.8 mph - N/A   Overcast
12:30 PM 66.0 °F 61.0 °F 84% 29.97 in 10.0 mi NNW 9.2 mph - N/A   Mostly Cloudy
12:40 PM 66.9 °F 61.0 °F 81% 29.97 in 10.0 mi NNW 11.5 mph - N/A   Mostly Cloudy
12:49 PM 66.2 °F 60.8 °F 83% 29.98 in 10.0 mi NNW 10.4 mph - N/A   Overcast
12:53 PM 66.9 °F 61.0 °F 81% 29.97 in 10.0 mi WNW 10.4 mph - N/A   Overcast
1:22 PM 68.0 °F 60.1 °F 76% 29.97 in 10.0 mi NW 9.2 mph - N/A   Mostly Cloudy
1:53 PM 68.0 °F 60.1 °F 76% 29.97 in 10.0 mi WNW 9.2 mph - N/A   Mostly Cloudy
2:53 PM 69.1 °F 57.9 °F 68% 29.96 in 10.0 mi WNW 9.2 mph - N/A   Mostly Cloudy
3:53 PM 71.1 °F 57.0 °F 61% 29.96 in 10.0 mi NW 9.2 mph - N/A   Scattered Clouds
4:53 PM 71.1 °F 57.0 °F 61% 29.96 in 10.0 mi WNW 13.8 mph - N/A   Scattered Clouds
5:53 PM 68.0 °F 57.0 °F 68% 29.97 in 10.0 mi WNW 10.4 mph - N/A   Clear
6:53 PM 66.9 °F 57.9 °F 73% 29.99 in 10.0 mi WNW 6.9 mph - N/A   Clear
7:53 PM 62.1 °F 57.9 °F 86% 30.00 in 10.0 mi West 5.8 mph - N/A   Clear
8:53 PM 61.0 °F 57.9 °F 90% 30.00 in 10.0 mi Calm Calm - N/A   Clear
9:53 PM 60.1 °F 57.9 °F 93% 30.01 in 10.0 mi Calm Calm - N/A   Clear
10:53 PM 59.0 °F 57.0 °F 93% 30.00 in 10.0 mi Calm Calm - N/A   Clear
11:53 PM 59.0 °F 57.0 °F 93% 30.00 in 10.0 mi Calm Calm - N/A   Clear